Regional Weather Roundup
Issued by NWS

Home | Current Version | Previous Version | Graphics & Text | Print | Product List | Glossary Off
Versions: 1 2 3 4 5 6 7 8 9 10 11 12 13 14 15 16 17 18 19 20 21 22 23 24 25 26 27 28 29 30 31 32 33 34 35 36 37 38 39 40 41 42 43 44 45 46 47 48 49 50

000
ASUS43 KDMX 011407
RWRIA

WEATHER ROUNDUP FOR IOWA
NATIONAL WEATHER SERVICE DES MOINES IA
900 AM CDT SAT AUG 01 2015

NOTE: "FAIR" INDICATES FEW OR NO CLOUDS BELOW 12,000 FEET WITH NO
SIGNIFICANT WEATHER AND/OR OBSTRUCTIONS TO VISIBILITY.

* - THESE STATIONS ARE NOT NWS STATIONS...THUS NOT UNDER NWS
QUALITY CONTROL.  THEY ALSO DO NOT REPORT WEATHER SUCH
AS PRECIPITATION OR FOG.

IAZ001>003-012>014-020>022-031>034-043>046-011500-
   NORTHWEST IOWA

CITY           SKY/WX    TMP DP  RH WIND       PRES   REMARKS
CARROLL *      SUNNY     73  70  88 SW5       30.04S
CHEROKEE *     PTSUNNY   72  70  94 SW3       30.04R
DENISON *      SUNNY     68  66  94 CALM      30.04S
LE MARS *      SUNNY     73  68  83 SW7       30.05R
ORANGE CITY *  SUNNY     68  66  94 SW7       30.05R
SHELDON *      SUNNY     72  68  88 SW5       30.03S
SIOUX CITY     CLOUDY    69  64  84 CALM      30.03F
SPENCER        SUNNY     73  66  78 SW9       30.04S
STORM LAKE *   SUNNY     73  70  88 SW5       30.06R
$$

IAZ055>058-069>071-079>083-090>094-011500-
   SOUTHWEST IOWA

CITY           SKY/WX    TMP DP  RH WIND       PRES   REMARKS
ATLANTIC *     SUNNY     68  68 100 CALM      30.07R
AUDUBON *      SUNNY     68  66  94 S3        30.07S
CLARINDA *     SUNNY     72  68  88 CALM      30.08R
COUNCIL BLFS * SUNNY     68  68 100 W3        30.09R
CRESTON *      SUNNY     72  68  88 SE3       30.08S
HARLAN  *      SUNNY     66  66 100 S5        30.09S
LAMONI         PTSUNNY   74  68  81 SE5       30.06S
RED OAK *      SUNNY     70  68  94 CALM      30.07R
SHENANDOAH *   SUNNY     70  70 100 NE3       30.06S
$$

IAZ047>049-059>061-072>074-084-011500-
   CENTRAL IOWA

CITY           SKY/WX    TMP DP  RH WIND       PRES   REMARKS
AMES           MOSUNNY   74  69  85 SW9       30.03S
ANKENY *       SUNNY     79  68  69 SW7       30.04S HX  81
CHARITON *     SUNNY     75  68  78 S7        30.06S
DES MOINES     CLOUDY    77  66  68 SW7       30.04S
GRINNELL*      SUNNY     72  64  78 SW10      30.05S
KNOXVILLE *    SUNNY     75  66  73 SW7       30.04S
MARSHALLTOWN     N/A     74  68  81 SW10      30.02S
PELLA *        MOSUNNY   77  70  78 SW5       30.06S
PERRY *          N/A     77  72  83 SW5       30.05S
$$

IAZ004>006-015-016-023>025-035-036-011500-
   NORTH CENTRAL IOWA

CITY           SKY/WX    TMP DP  RH WIND       PRES   REMARKS
ALGONA *       SUNNY     73  68  83 SW8       30.03S
CLARION *      SUNNY     72  68  88 SW7       30.03S
ESTHERVILLE    SUNNY     72  65  78 W7        30.03S
FORT DODGE *   SUNNY     73  66  78 SW5       30.05R
MASON CITY     SUNNY     75  65  70 W15       30.03S
FOREST CITY *  SUNNY     72  66  83 SW6       30.02S
IOWA FALLS *     N/A     73  66  78 SW9       30.04S
$$

IAZ007>011-017>019-026>030-037>042-050>054-066-011500-
   NORTHEAST IOWA

CITY           SKY/WX    TMP DP  RH WIND       PRES   REMARKS
CEDAR RAPIDS   SUNNY     72  67  84 SW8       30.02S
CHARLES CITY * SUNNY     72  68  88 W8        30.02R
CLINTON *      SUNNY     70  64  83 W5        30.05R
DECORAH *      SUNNY     70  63  78 W6        29.99S
DUBUQUE        MOSUNNY   71  63  75 SW5       30.01F
MONTICELLO *   SUNNY     73  63  68 SW9       30.01S
OELWEIN *      SUNNY     72  64  78 SW6G13    30.02S
WATERLOO       SUNNY     75  65  70 W12       30.00S
$$

IAZ064-065-067-068-078-011500-
   EAST CENTRAL IOWA

CITY           SKY/WX    TMP DP  RH WIND       PRES   REMARKS
DAVENPORT      SUNNY     73  63  70 SW5       30.03S
IOWA CITY      SUNNY     72  64  76 SW7       30.04S
MT. PLEASANT * SUNNY     77  63  61 SW5       30.05S
MUSCATINE *    SUNNY     73  63  68 CALM      30.04R
QUAD CITIES    SUNNY     75  62  64 SW3       30.02F
$$

IAZ062-063-075>077-085>089-095>099-011500-
   SOUTHEAST IOWA

CITY           SKY/WX    TMP DP  RH WIND       PRES   REMARKS
BURLINGTON     SUNNY     73  65  75 SW3       30.04S
FAIRFIELD *    SUNNY     75  64  69 SW7       30.05S
FORT MADISON * SUNNY     73  64  73 SW5       30.06S
KEOKUK *       SUNNY     77  66  69 S5        30.05S
OSKALOOSA *      N/A     73  68  83 SW3       30.05S
CENTERVILLE *  SUNNY     75  68  78 SE7       30.08S
OTTUMWA        SUNNY     74  67  78 S8        30.04R
WASHINGTON *   SUNNY     73  66  78 SW8       30.05S
$$

ABBREVIATIONS USED IN REMARKS
   TC - TEMPERATURES IN CELSIUS
  WCI - WIND CHILL INDEX
   HX - HEAT INDEX
  VSB - VISIBILITY
$$



USA.gov is the U.S. government's official web portal to all federal, state and local government web resources and services.